Temp
15 16 17 17 16 16 16 16 15 18 18 18 15 14 13 11 9 8 8 7 8 9 10 10 10 9 9 8 8 8 7 7 6 6 6 6 5 5 4 4 4 4 3 3
12 14 15 14 17 17 16 17 17 17 18 18 17 14 10 9 9 8 8 8 8 8 9 9 9 8 8 8 7 7 6 6 6 6 6 5 4 4 4 4 3 3 2 2
11 13 13 12 14 15 16 17 17 16 17 18 15 13 13 10 9 9 9 9 8 9 9 9 9 8 8 7 7 6 6 6 5 5 4 4 4 3 3 3 2 2 1 1
11 11 10 14 17 17 15 16 17 17 17 18 17 15 14 13 12 10 10 8 7 7 7 8 8 7 7 7 6 6 6 5 4 5 4 3 2 3 3 2 2 2 1 -0
10 9 13 14 12 13 14 15 16 16 17 17 16 12 11 11 13 15 12 10 8 7 7 8 7 7 6 6 6 5 4 5 5 4 3 2 2 2 2 2 1 0 -0 -0
7 10 11 12 13 13 13 13 15 15 16 16 13 13 15 13 10 10 9 8 6 6 7 7 6 6 6 5 5 4 4 5 3 3 2 2 2 1 2 1 0 -1 -0 0
7 9 10 11 10 13 12 14 11 13 15 16 13 16 16 14 9 9 8 6 5 5 7 6 5 5 5 4 4 4 5 3 3 2 2 1 1 1 1 0 -0 -1 -0 0
6 8 11 9 9 13 12 10 10 11 12 10 12 11 12 10 8 7 6 5 4 5 6 5 5 4 4 4 4 4 2 2 2 2 1 1 1 1 0 -0 -0 -0 -0 -0
8 10 9 9 9 9 10 9 10 10 10 10 9 7 6 5 5 5 4 2 4 6 5 4 4 4 3 4 4 2 2 2 2 1 1 1 0 -1 -1 -1 -0 -0 -0 -0
7 9 8 8 8 11 11 11 10 10 10 9 9 7 5 3 2 2 2 3 5 5 4 3 3 3 2 4 3 2 2 1 1 1 0 -0 -1 -1 -1 -1 -1 -1 -1 -1
6 6 7 7 8 10 11 11 11 9 10 9 9 4 4 2 1 2 2 4 4 4 4 4 3 2 3 3 2 2 1 1 0 -0 -1 -1 -1 -1 -1 -1 -1 -2 -2 -2
8 7 9 10 12 11 10 10 10 10 8 6 7 5 2 1 0 2 3 3 3 3 3 3 2 3 3 2 1 1 0 -0 -1 -1 -1 -1 -1 -1 -2 -2 -2 -2 -2 -3
8 10 9 9 9 10 9 9 9 9 8 5 3 4 2 0 0 2 3 3 3 4 3 3 3 3 2 1 1 0 -0 -1 -1 -1 -1 -1 -1 -1 -1 -2 -2 -2 -3 -3
9 9 6 7 9 8 8 7 6 5 4 4 3 2 2 2 3 4 4 3 3 3 3 4 2 1 1 0 -0 -1 -1 -1 -1 -1 -1 -1 -2 -2 -2 -3 -3 -3 -3 -4
7 9 9 9 7 5 5 5 4 4 3 3 3 4 4 4 4 4 3 3 3 3 2 1 1 0 -0 -0 -1 -1 -1 -1 -1 -1 -2 -2 -2 -3 -3 -4 -4 -4 -4 -4
6 7 8 7 5 3 4 3 4 2 2 3 3 3 4 4 3 3 2 2 2 1 1 1 0 0 -0 -1 -1 -1 -1 -1 -2 -2 -3 -3 -3 -3 -4 -4 -5 -5 -5 -5
4 2 3 2 2 2 3 3 5 4 4 4 4 4 4 3 2 1 1 1 1 1 1 1 1 -0 -1 -1 -1 -1 -2 -2 -2 -3 -3 -3 -4 -4 -5 -5 -5 -6 -6 -6
7 7 7 7 3 2 3 5 5 5 5 5 4 3 3 2 2 1 1 1 1 0 -0 -0 -1 -1 -2 -2 -2 -2 -2 -3 -3 -3 -3 -4 -4 -5 -5 -6 -6 -6 -6 -7
6 7 5 4 4 4 5 5 5 6 4 4 4 3 2 2 2 1 1 0 0 -0 -0 -1 -1 -1 -2 -2 -3 -3 -3 -3 -4 -4 -4 -4 -5 -5 -6 -6 -7 -7 -7 -8
5 5 5 4 4 5 6 6 5 4 4 4 3 2 2 1 1 1 0 0 -0 -0 -1 -1 -1 -2 -2 -2 -3 -3 -4 -4 -4 -5 -5 -5 -6 -6 -6 -7 -7 -8 -8 -8
5 4 4 4 3 4 4 4 4 4 3 2 2 2 1 1 0 0 -0 -1 -1 -1 -2 -2 -2 -2 -3 -4 -4 -4 -5 -5 -6 -6 -7 -7 -7 -7 -7 -8 -8 -9 -9 -9
4 4 4 3 3 3 4 4 3 3 2 2 1 1 1 0 -0 -0 -1 -1 -2 -2 -3 -4 -4 -4 -5 -5 -6 -6 -6 -7 -7 -8 -8 -8 -8 -9 -9 -9 -10 -10 -10 -10
3 3 2 2 3 3 2 3 2 2 2 1 1 1 1 0 -1 -2 -2 -3 -3 -4 -4 -5 -5 -6 -6 -7 -8 -8 -8 -9 -9 -9 -10 -10 -10 -11 -11 -11 -11 -11 -11 -11
2 2 2 2 3 3 2 1 2 1 1 0 -0 -1 -1 -2 -2 -3 -4 -4 -5 -5 -6 -7 -7 -8 -8 -9 -9 -10 -10 -10 -11 -11 -11 -11 -12 -12 -12 -12 -12 -12 -12 -12
2 2 3 3 3 2 1 0 0 -1 -1 -2 -2 -3 -3 -4 -4 -5 -6 -6 -7 -8 -8 -9 -9 -9 -10 -10 -11 -11 -12 -12 -12 -12 -12 -13 -13 -13 -13 -13 -13 -13 -13 -13
2 2 1 2 2 1 0 -1 -1 -2 -3 -3 -4 -5 -6 -6 -6 -7 -8 -8 -9 -10 -10 -10 -11 -11 -12 -12 -12 -13 -13 -13 -13 -13 -14 -14 -14 -14 -14 -14 -14 -14 -14 -14
-0 0 -0 -1 -2 -2 -2 -3 -3 -4 -5 -5 -6 -7 -8 -8 -9 -9 -10 -10 -10 -11 -11 -12 -12 -13 -13 -13 -14 -14 -14 -14 -15 -15 -15 -15 -15 -15 -15 -15 -15 -15 -15 -15
Height
1374 1380 1382 1382 1389 1392 1395 1377 1395 1363 1370 1381 1390 1393 1394 1400 1406 1411 1415 1420 1424 1429 1436 1445 1452 1460 1467 1473 1478 1483 1486 1490 1493 1495 1496 1496 1495 1494 1493 1492 1491 1490 1488 1486
1382 1383 1383 1386 1374 1371 1369 1372 1367 1371 1363 1372 1378 1384 1393 1395 1399 1404 1409 1412 1416 1424 1430 1438 1445 1453 1461 1468 1474 1479 1483 1486 1489 1491 1492 1492 1490 1489 1489 1488 1487 1486 1484 1482
1373 1380 1387 1388 1356 1363 1363 1362 1361 1360 1357 1368 1376 1381 1382 1388 1392 1393 1396 1400 1406 1412 1421 1430 1439 1448 1456 1464 1470 1475 1479 1481 1484 1486 1487 1487 1485 1485 1485 1484 1483 1482 1480 1477
1374 1382 1385 1329 1340 1347 1354 1354 1352 1350 1356 1357 1361 1367 1370 1374 1376 1382 1386 1395 1403 1409 1418 1426 1437 1445 1452 1459 1466 1471 1474 1477 1479 1480 1481 1481 1481 1480 1479 1479 1478 1477 1476 1475
1373 1374 1347 1335 1346 1344 1346 1338 1339 1341 1347 1352 1357 1361 1364 1366 1368 1370 1374 1382 1392 1402 1410 1420 1431 1439 1447 1454 1461 1465 1469 1471 1473 1475 1476 1476 1475 1475 1475 1474 1473 1472 1471 1470
1371 1361 1347 1333 1331 1337 1340 1329 1328 1332 1336 1340 1350 1353 1346 1350 1360 1368 1375 1382 1389 1397 1407 1419 1428 1437 1443 1449 1455 1459 1463 1466 1467 1470 1470 1470 1470 1470 1469 1468 1469 1469 1467 1465
1355 1352 1338 1328 1329 1332 1344 1331 1324 1325 1323 1328 1338 1332 1338 1346 1355 1362 1370 1378 1387 1396 1405 1417 1427 1436 1442 1448 1452 1456 1459 1461 1463 1464 1465 1465 1465 1465 1465 1465 1465 1464 1464 1461
1351 1347 1335 1325 1332 1327 1323 1322 1324 1322 1323 1325 1332 1335 1338 1343 1349 1357 1362 1372 1383 1392 1404 1414 1424 1432 1439 1444 1448 1453 1455 1457 1458 1459 1460 1461 1462 1461 1462 1462 1462 1460 1457 1455
1328 1319 1318 1321 1319 1318 1317 1320 1323 1324 1325 1327 1332 1337 1340 1344 1350 1357 1363 1373 1382 1391 1403 1414 1423 1429 1435 1438 1443 1447 1451 1452 1454 1456 1458 1459 1460 1460 1461 1460 1457 1455 1453 1450
1322 1312 1317 1316 1319 1314 1314 1319 1323 1324 1326 1329 1331 1337 1342 1348 1352 1359 1367 1373 1381 1391 1402 1411 1420 1425 1432 1435 1439 1444 1447 1449 1452 1454 1456 1456 1457 1458 1458 1456 1454 1452 1447 1443
1317 1313 1313 1315 1315 1313 1315 1316 1319 1324 1328 1332 1331 1337 1342 1347 1354 1360 1366 1375 1383 1391 1401 1409 1414 1420 1426 1432 1436 1440 1443 1448 1450 1451 1453 1455 1455 1456 1454 1453 1452 1448 1443 1441
1299 1300 1304 1306 1306 1310 1314 1316 1318 1321 1326 1331 1334 1337 1343 1349 1356 1361 1369 1378 1387 1395 1400 1406 1410 1418 1423 1428 1432 1436 1440 1444 1446 1449 1450 1452 1452 1451 1451 1451 1449 1446 1442 1438
1297 1299 1303 1304 1305 1308 1310 1311 1314 1319 1324 1328 1334 1338 1343 1349 1359 1366 1375 1384 1389 1395 1400 1404 1409 1416 1421 1426 1431 1435 1437 1440 1443 1444 1446 1447 1447 1447 1448 1446 1445 1442 1440 1438
1291 1294 1302 1304 1303 1303 1307 1308 1312 1321 1327 1332 1335 1341 1345 1352 1362 1371 1377 1384 1389 1395 1401 1405 1410 1414 1420 1424 1429 1432 1435 1437 1440 1440 1441 1442 1443 1441 1440 1439 1440 1439 1438 1433
1286 1288 1293 1299 1304 1306 1306 1305 1310 1320 1327 1333 1339 1343 1351 1357 1365 1374 1380 1385 1391 1396 1401 1406 1410 1415 1419 1423 1427 1429 1431 1433 1433 1435 1437 1437 1437 1435 1435 1435 1434 1430 1429 1427
1285 1289 1293 1296 1298 1303 1306 1308 1309 1320 1329 1336 1343 1352 1357 1362 1369 1376 1381 1386 1390 1393 1399 1404 1410 1414 1418 1421 1424 1426 1427 1429 1429 1430 1433 1432 1430 1430 1430 1430 1429 1427 1425 1422
1280 1287 1288 1291 1294 1302 1308 1312 1318 1325 1333 1339 1347 1355 1362 1368 1374 1379 1384 1388 1393 1397 1400 1405 1410 1413 1417 1419 1421 1422 1423 1424 1424 1425 1426 1424 1423 1423 1422 1420 1420 1419 1417 1416
1275 1278 1281 1285 1291 1302 1312 1317 1324 1330 1336 1345 1351 1359 1364 1369 1373 1380 1386 1389 1394 1397 1401 1405 1409 1411 1412 1414 1416 1417 1417 1418 1418 1418 1417 1416 1416 1417 1415 1413 1413 1412 1411 1411
1276 1279 1283 1290 1297 1306 1314 1321 1328 1334 1341 1349 1354 1360 1367 1372 1376 1381 1386 1390 1394 1397 1400 1403 1405 1406 1407 1410 1410 1410 1410 1411 1410 1410 1411 1409 1407 1406 1406 1404 1404 1403 1403 1403
1277 1282 1287 1293 1302 1309 1314 1322 1331 1337 1344 1350 1356 1363 1367 1374 1379 1381 1387 1391 1395 1397 1397 1398 1402 1403 1403 1404 1404 1403 1403 1402 1402 1401 1401 1400 1398 1396 1395 1395 1396 1395 1395 1394
1280 1285 1290 1296 1304 1311 1318 1327 1334 1339 1346 1353 1357 1363 1370 1374 1377 1383 1387 1388 1391 1393 1395 1395 1396 1397 1398 1399 1397 1395 1395 1394 1393 1391 1391 1390 1390 1388 1387 1387 1387 1387 1387 1385
1284 1289 1294 1301 1308 1315 1323 1328 1336 1342 1348 1354 1358 1364 1369 1374 1379 1382 1383 1386 1388 1388 1389 1390 1391 1391 1390 1389 1388 1388 1388 1387 1385 1384 1382 1381 1380 1379 1379 1379 1379 1378 1378 1377
1289 1293 1299 1306 1311 1317 1325 1333 1339 1344 1347 1352 1358 1365 1369 1372 1377 1380 1381 1382 1384 1384 1384 1384 1385 1384 1383 1382 1381 1380 1380 1379 1378 1376 1375 1374 1373 1372 1372 1371 1370 1370 1369 1369
1295 1301 1307 1314 1318 1324 1330 1337 1340 1344 1349 1354 1359 1363 1368 1372 1375 1377 1378 1378 1379 1379 1379 1379 1379 1378 1377 1375 1374 1373 1373 1372 1371 1370 1368 1367 1366 1365 1364 1363 1362 1362 1361 1361
1304 1308 1313 1318 1323 1329 1335 1338 1342 1346 1350 1355 1359 1364 1368 1371 1374 1373 1374 1375 1375 1374 1374 1374 1374 1372 1370 1369 1369 1367 1366 1365 1364 1362 1361 1359 1358 1356 1355 1354 1353 1352 1352 1352
1311 1315 1320 1325 1328 1333 1337 1342 1344 1349 1354 1357 1361 1365 1367 1367 1368 1370 1371 1371 1370 1371 1370 1369 1367 1366 1364 1363 1361 1360 1358 1356 1355 1353 1351 1349 1347 1345 1344 1343 1342 1341 1341 1341
1319 1322 1326 1330 1336 1340 1343 1346 1349 1352 1355 1358 1360 1362 1364 1365 1366 1366 1366 1366 1366 1365 1364 1362 1361 1359 1357 1355 1353 1351 1348 1346 1344 1342 1339 1337 1335 1334 1332 1331 1331 1330 1330 1330
Wind_Speed
28 9 14 24 22 27 30 35 19 24 29 20 14 12 15 17 18 22 26 30 39 50 55 52 47 42 37 32 27 22 18 13 10 8 10 13 14 14 15 16 17 17 16 13
24 22 23 15 23 29 36 33 36 26 22 3 12 13 15 22 26 27 30 35 44 48 54 54 49 44 38 32 27 21 16 12 8 8 12 13 12 13 14 14 14 12 11 11
20 20 12 20 31 23 25 30 26 30 22 18 10 14 21 25 29 35 40 45 48 57 59 56 50 44 38 32 26 21 14 9 7 10 10 12 12 11 12 11 9 9 10 12
8 9 17 20 12 25 25 23 25 26 16 17 19 26 29 36 40 38 42 39 42 48 50 53 46 42 37 32 24 17 10 8 7 10 13 11 9 10 11 10 10 11 11 11
9 12 7 15 5 8 15 26 27 28 23 21 18 11 12 33 42 45 47 47 49 52 55 53 48 42 36 28 20 12 8 6 9 14 12 10 9 9 10 10 10 11 12 14
5 10 15 3 14 9 4 18 9 17 24 27 16 13 15 38 39 35 37 42 47 51 54 50 45 39 33 25 16 8 6 11 13 11 11 11 9 9 10 11 11 13 14 16
8 7 8 5 5 15 12 0 2 7 19 16 16 25 25 23 34 37 38 43 45 49 53 48 41 34 27 17 10 7 12 13 10 10 9 8 8 8 8 8 9 10 12 14
4 6 16 7 5 15 1 2 3 3 12 20 20 11 17 28 38 40 44 47 48 52 51 44 38 30 22 15 8 12 13 11 9 6 4 3 2 1 3 6 8 11 15 17
10 6 3 13 1 7 4 1 4 2 7 17 17 15 26 34 40 42 44 46 49 53 48 39 29 21 19 12 12 16 13 10 8 7 6 5 5 5 5 7 11 15 18 22
3 5 6 7 10 7 8 2 1 1 8 15 22 26 29 33 37 41 44 49 52 51 43 34 25 18 15 14 17 16 13 12 11 9 8 7 5 4 5 9 13 15 20 23
3 3 1 8 14 13 10 8 5 6 8 14 22 26 32 36 39 42 46 51 50 44 33 25 22 20 18 19 18 17 16 14 12 9 7 4 1 3 7 10 14 18 21 24
4 6 2 5 16 17 17 18 14 13 11 15 22 29 31 33 37 45 52 49 41 30 24 24 22 21 22 21 21 19 17 14 11 9 7 4 3 5 8 9 12 15 18 21
4 16 15 7 7 19 18 16 14 15 18 25 25 28 33 37 39 46 46 37 27 25 26 24 25 24 25 23 21 18 15 13 10 8 6 7 8 10 11 11 13 15 18 20
21 15 4 10 7 15 17 17 18 17 19 21 26 27 31 37 43 42 36 30 27 26 25 25 26 27 25 23 20 17 14 11 8 7 8 10 12 14 16 18 19 18 17 20
21 18 10 15 9 16 18 24 25 24 25 26 25 30 37 43 39 34 29 27 25 24 24 25 26 25 24 21 18 15 12 10 8 9 11 12 14 16 18 20 21 22 23 22
22 16 13 18 19 21 25 26 30 29 29 30 31 35 36 35 33 29 27 26 27 27 25 25 23 22 21 19 16 14 11 10 12 13 15 16 17 18 20 22 23 24 24 25
24 13 18 21 27 28 28 29 30 33 33 33 32 31 30 30 29 27 25 22 19 19 20 19 16 19 18 15 14 12 13 14 15 18 19 19 21 23 23 24 25 25 24 23
24 26 24 26 32 31 29 30 33 33 29 27 29 28 28 29 28 25 21 20 18 17 16 14 14 15 16 16 16 17 17 18 20 23 23 25 26 26 27 27 27 26 25 23
21 21 20 24 30 34 34 29 27 29 28 28 26 25 23 22 21 21 20 19 18 16 13 13 13 15 15 17 18 20 22 24 25 27 28 28 29 30 31 31 30 27 26 25
20 21 23 29 34 40 30 28 28 29 27 23 21 22 23 21 21 20 18 16 15 13 14 14 15 16 17 19 21 22 24 25 27 28 29 29 30 29 29 29 29 28 27 26
23 23 24 29 30 25 27 32 31 27 24 20 20 21 20 20 20 19 18 17 16 16 16 16 17 17 18 19 21 23 27 29 29 28 28 27 27 27 27 28 29 28 27 26
24 23 24 25 29 32 31 31 27 24 23 22 21 20 19 17 16 16 15 15 15 13 13 14 16 18 20 21 22 23 23 22 22 23 24 24 25 24 24 25 26 26 26 26
25 25 26 29 35 35 33 30 26 23 23 21 19 17 16 15 14 12 12 11 12 13 13 15 16 17 18 19 20 20 21 22 22 22 22 22 22 23 24 24 24 25 26 26
29 29 32 34 33 33 31 26 24 21 19 18 16 13 11 11 10 9 9 9 11 13 13 14 15 16 17 18 19 20 20 20 21 22 23 23 24 25 26 27 27 27 27 27
32 32 30 29 28 27 25 22 20 19 17 16 13 11 9 8 8 7 9 10 11 12 12 14 15 16 18 19 19 19 20 21 22 23 25 26 27 28 29 29 30 30 29 29
27 27 26 24 22 21 20 19 17 16 13 11 9 7 6 5 6 6 8 9 9 11 13 15 17 18 19 21 22 24 25 27 28 30 31 32 32 33 33 34 34 34 34 33
26 25 24 22 19 18 16 13 11 10 8 5 4 4 4 4 6 7 8 10 13 15 17 19 21 22 24 26 28 30 31 34 36 36 36 35 36 35 33 32 31 31 30 30
Wind_Direction
234 237 205 213 211 212 215 227 221 254 242 230 206 202 196 191 174 177 182 185 190 189 189 188 187 186 184 183 183 187 188 194 212 246 284 295 297 303 304 304 307 309 306 309
236 236 242 255 233 218 222 224 238 245 246 185 203 185 163 185 183 186 190 192 194 189 187 189 187 184 181 182 184 186 191 204 234 276 291 294 303 303 304 308 306 304 310 317
235 227 239 252 232 231 231 226 231 235 240 237 213 195 198 193 193 194 194 196 193 191 190 191 188 182 181 183 186 190 197 216 248 279 293 295 298 305 310 309 303 311 314 314
228 161 214 249 200 225 228 234 231 247 239 229 226 217 215 212 204 200 201 193 190 186 185 190 183 180 182 184 183 188 204 227 258 296 284 280 290 300 305 310 312 313 316 317
201 210 280 250 191 178 202 238 232 237 239 243 235 189 213 216 218 219 207 200 192 187 187 186 180 180 180 177 180 190 207 257 293 274 261 265 274 290 304 311 312 309 309 312
169 215 233 307 191 190 120 260 202 219 235 235 193 228 233 216 210 203 199 192 183 184 187 180 177 177 177 174 179 184 237 274 258 255 256 260 273 289 302 308 311 312 319 324
186 207 265 231 145 148 185 129 340 243 235 218 202 224 242 215 194 196 190 180 182 182 181 176 174 174 171 175 186 229 255 243 245 249 253 267 279 287 300 317 336 348 352 355
163 207 249 151 135 181 116 356 304 241 227 187 202 208 199 181 173 174 177 177 175 176 173 171 171 171 178 177 215 238 222 223 226 226 224 225 217 52 19 11 7 3 1 356
194 210 157 191 185 177 87 40 335 260 211 198 178 148 152 156 163 169 169 163 173 174 166 165 166 173 177 191 224 208 203 197 182 173 165 143 108 78 35 12 6 1 357 356
131 196 211 201 223 179 186 155 274 242 197 199 175 169 163 157 158 158 166 171 172 165 163 163 169 174 189 196 194 189 183 173 169 162 150 132 110 63 21 8 2 359 357 355
260 252 188 225 225 208 203 215 230 182 191 194 179 166 166 161 161 165 168 170 166 163 162 168 169 172 184 190 183 175 169 170 167 161 158 153 142 13 2 352 350 355 355 352
211 169 163 226 219 211 203 211 203 187 169 174 183 173 167 156 163 169 167 162 160 165 168 169 168 182 185 180 175 172 173 175 175 183 196 221 276 321 329 339 344 345 344 342
164 195 201 223 206 202 203 201 198 199 187 169 168 173 170 164 165 165 161 161 166 173 172 171 180 183 179 176 174 175 176 181 192 210 236 271 292 302 308 314 326 330 333 337
207 176 178 204 208 188 196 183 179 170 166 172 167 170 170 169 162 163 168 172 171 169 177 182 181 178 175 175 178 181 186 197 217 240 265 282 292 301 310 317 319 324 328 328
191 192 201 199 191 179 180 168 157 158 162 162 167 166 164 160 165 169 168 168 170 174 175 176 176 176 180 184 189 194 202 217 239 261 273 281 289 298 305 307 311 318 322 326
191 192 182 181 171 170 169 164 159 157 160 157 159 163 164 164 163 165 168 172 174 175 177 179 180 184 190 195 203 213 227 245 262 272 278 284 290 295 296 299 305 310 317 323
152 144 154 149 160 164 167 167 160 155 152 153 158 162 165 166 166 169 171 173 177 179 180 183 183 195 204 215 226 239 251 261 268 272 278 284 285 284 286 290 295 299 306 313
198 185 185 185 170 161 163 158 153 149 148 156 159 164 166 171 171 169 169 169 173 178 185 188 198 207 219 230 241 249 255 262 267 271 277 278 280 282 280 283 288 292 297 302
187 180 178 178 171 161 150 153 159 170 162 160 162 166 170 170 169 166 168 173 178 181 185 199 210 222 233 243 250 255 262 266 270 272 275 278 278 280 277 276 280 283 289 294
168 169 165 167 168 165 168 180 172 159 157 158 159 164 165 169 171 169 177 186 193 203 210 218 229 238 246 254 259 264 270 274 277 279 281 282 282 282 279 273 273 278 282 288
153 157 157 165 170 169 158 155 155 152 154 159 160 163 169 175 181 191 199 206 214 222 231 242 249 254 257 261 266 272 278 281 281 283 284 284 283 281 277 272 270 275 281 284
153 155 156 158 155 152 152 151 151 151 154 159 164 171 178 186 197 204 209 220 226 234 244 252 260 264 267 270 276 284 286 285 284 283 284 281 279 278 276 274 275 278 279 280
149 150 150 152 150 146 147 150 153 156 159 166 172 178 186 189 196 206 218 232 246 256 265 269 273 278 283 286 287 287 287 286 285 284 284 283 282 281 280 278 278 278 279 279
138 142 145 145 144 147 149 152 155 158 164 166 170 173 185 196 210 228 243 255 265 273 280 285 289 290 290 291 291 290 288 287 286 286 285 285 283 283 281 279 280 281 279 279
136 137 138 142 147 149 150 147 149 147 152 156 162 174 192 211 235 252 265 273 281 286 290 292 294 296 295 292 290 289 288 287 286 285 283 283 282 281 280 278 276 277 278 276
135 137 140 144 144 145 147 148 149 147 155 161 171 191 217 247 269 273 280 286 291 294 297 298 298 296 294 292 289 287 285 283 282 283 283 282 281 280 280 278 277 275 272 274
127 130 130 126 126 133 136 138 145 148 155 170 195 217 244 271 282 291 294 294 297 298 298 298 297 293 289 286 284 283 283 281 281 283 283 281 281 282 280 279 278 278 275 271